Ft Lauderdale, FL

3:25 AM EDT on April 27, 2017 (GMT -0400)
Fort Lauderdale-Hollywood International

Weather History for KFLL - March, 2013

Change the Weather History Date:

Wednesday, March 27, 2013

  Actual Average Record
Temperature  
Mean Temperature 59 °F 74 °F  
Max Temperature 71 °F 81 °F 91 °F (1928)
Min Temperature 47 °F 67 °F 39 °F (1947)
Degree Days  
Heating Degree Days 6 0  
Month to date heating degree days 40 7  
Since 1 July heating degree days 83 109  
Cooling Degree Days 0 9  
Month to date cooling degree days 115 218  
Year to date cooling degree days 572 574  
Growing Degree Days 8 (Base 50)    
Moisture  
Dew Point 39 °F    
Average Humidity 50    
Maximum Humidity 66    
Minimum Humidity 33    
Precipitation  
Precipitation 0.00 in 0.11 in 3.84 in (1986)
Month to date precipitation 0.09 2.85  
Year to date precipitation 3.21 9.44  
Snow  
Snow 0.00 in - - ()
Month to date snowfall 0.0  
Since 1 July snowfall 0.0  
Snow Depth 0.00 in    
Sea Level Pressure  
Sea Level Pressure 30.21 in    
Wind  
Wind Speed 10 mph (NNW)    
Max Wind Speed 17 mph    
Max Gust Speed 24 mph    
Visibility 10 miles    
Events      
T = Trace of Precipitation, MM = Missing Value Source: NWS Daily Summary

Daily Weather History Graph

Daily Weather History Graph

Search for Another Location

Airport or City:

Trip Planner

Search our weather history database for the weather conditions in past years. The results will help you decide how hot, cold, wet, or windy it might be!

Date:

Astronomy

Mar. 27, 2013 Rise Set
Actual Time 7:16 AM EDT 7:35 PM EDT
Civil Twilight 6:53 AM EDT 7:58 PM EDT
Nautical Twilight 6:26 AM EDT 8:25 PM EDT
Astronomical Twilight 5:59 AM EDT 8:52 PM EDT
Moon 8:08 PM EDT 7:11 AM EDT
Length of Visible Light 13h 04m
Length of Day
12h 18m
Full, 100% of the Moon is Illuminated
Mar 27
Full
Apr 3
Last Quarter
Apr 10
New
Apr 18
First Quarter
Apr 25
Full

Hourly Weather History & Observations

Time (EDT) Temp. Dew Point Humidity Pressure Visibility Wind Dir Wind Speed Gust Speed Precip Events Conditions
12:53 AM 52.0 °F 34.0 °F 50% 30.21 in 10.0 mi NW 10.4 mph - N/A   Clear
1:53 AM 50.0 °F 34.0 °F 54% 30.20 in 10.0 mi NW 10.4 mph - N/A   Clear
2:53 AM 48.9 °F 36.0 °F 61% 30.19 in 10.0 mi NW 9.2 mph - N/A   Clear
3:53 AM 48.0 °F 37.0 °F 66% 30.18 in 10.0 mi NW 6.9 mph - N/A   Clear
4:53 AM 48.0 °F 36.0 °F 63% 30.18 in 10.0 mi NNW 11.5 mph - N/A   Clear
5:53 AM 48.0 °F 34.0 °F 58% 30.19 in 10.0 mi NNW 10.4 mph - N/A   Clear
6:53 AM 46.9 °F 34.0 °F 61% 30.20 in 10.0 mi NNW 6.9 mph - N/A   Clear
7:53 AM 48.9 °F 33.1 °F 54% 30.22 in 10.0 mi NW 11.5 mph - N/A   Clear
8:53 AM 54.0 °F 33.1 °F 45% 30.23 in 10.0 mi NNW 15.0 mph - N/A   Clear
9:53 AM 57.9 °F 36.0 °F 44% 30.25 in 10.0 mi NNW 13.8 mph - N/A   Clear
10:53 AM 62.1 °F 37.9 °F 41% 30.25 in 10.0 mi NNW 16.1 mph - N/A   Clear
11:53 AM 64.9 °F 39.9 °F 40% 30.25 in 10.0 mi NNW 12.7 mph - N/A   Clear
12:53 PM 66.9 °F 41.0 °F 39% 30.23 in 10.0 mi North 11.5 mph - N/A   Clear
1:53 PM 69.1 °F 42.1 °F 38% 30.20 in 10.0 mi NNW 10.4 mph - N/A   Partly Cloudy
2:53 PM 70.0 °F 39.9 °F 33% 30.19 in 10.0 mi North 5.8 mph - N/A   Partly Cloudy
3:53 PM 70.0 °F 44.1 °F 39% 30.17 in 10.0 mi ENE 9.2 mph - N/A   Partly Cloudy
4:53 PM 68.0 °F 44.1 °F 42% 30.17 in 10.0 mi NE 12.7 mph - N/A   Partly Cloudy
5:53 PM 66.9 °F 45.0 °F 45% 30.18 in 10.0 mi NE 8.1 mph - N/A   Partly Cloudy
6:53 PM 66.0 °F 44.1 °F 45% 30.19 in 10.0 mi NNE 12.7 mph - N/A   Partly Cloudy
7:53 PM 63.0 °F 45.0 °F 52% 30.20 in 10.0 mi North 11.5 mph - N/A   Partly Cloudy
8:53 PM 62.1 °F 44.1 °F 52% 30.21 in 10.0 mi North 6.9 mph - N/A   Partly Cloudy
9:53 PM 60.1 °F 44.1 °F 55% 30.22 in 10.0 mi NNW 5.8 mph - N/A   Partly Cloudy
10:53 PM 59.0 °F 45.0 °F 60% 30.23 in 10.0 mi North 5.8 mph - N/A   Partly Cloudy
11:53 PM 57.9 °F 44.1 °F 60% 30.23 in 10.0 mi North 5.8 mph - N/A   Partly Cloudy